Location: Arrakis Observatory
(44.1122°N, 95.7153°W)
Time: 22:39:46
(UTC-05:00)

Amateur Radio Satellites - All Passes

Search period start: 25 September 2016 22:09
Search period end: 26 September 2016 22:09
Location: Arrakis Observatory, 44.1122°N, 95.7153°W

Satellite Date Start Highest point End Downlink Frequencies (MHz)
Time Altitude Azimuth
CUSAT 1 25 Sep 22:14:00 22:18:24 18° 304° (NW) 22:23:18 437.405
ISS 25 Sep 22:15:22 22:18:35 61° 145° (SE) 22:21:50 145.825
UNISAT 6 25 Sep 22:27:06 22:28:47 12° 89° (E) 22:30:30 437.425
AO-85 25 Sep 22:30:00 22:35:11 72° 122° (ESE) 22:40:03 145.980
RS-15 25 Sep 22:32:12 22:43:49 64° 313° (NW) 22:56:04 29.354- 29.394
HO-68 25 Sep 22:41:34 22:42:37 10° 276° (W) 22:43:40 435.675
HUMSAT D 25 Sep 22:43:22 22:47:25 85° 80° (E) 22:51:34 437.325/437.525
PRISM 25 Sep 22:43:27 22:47:34 62° 286° (WNW) 22:51:38 437.425
ESTCUBE 1 25 Sep 22:45:48 22:48:48 18° 62° (ENE) 22:51:47 437.505/2401.250
Cosmos 2499 25 Sep 22:48:09 22:53:29 21° 279° (W) 22:59:04 435.465 / 435.565
M-CUBED/EXP-1 PRIME 25 Sep 22:51:15 22:52:22 11° 57° (ENE) 22:53:28 437.505
DELFI C3 25 Sep 22:56:44 23:00:21 32° 264° (W) 23:04:00 145.870
VELOX 1 25 Sep 22:57:05 22:58:39 12° 59° (ENE) 23:00:13 145.980
FUNcube-1 25 Sep 22:59:18 23:01:39 15° 269° (W) 23:04:01 145.935
ANTELSAT 25 Sep 23:00:55 23:04:40 27° 95° (E) 23:08:28 437.575/2403.000
CUBEBUG 1 25 Sep 23:06:02 23:08:59 18° 63° (ENE) 23:11:56 437.445
GONETS M04 25 Sep 23:19:01 23:23:00 14° 287° (WNW) 23:27:00
TIGRISAT 25 Sep 23:21:51 23:26:01 42° 99° (E) 23:30:14 435.000
DANDE 25 Sep 23:25:00 23:26:11 11° 312° (NW) 23:27:25 436.750
50 SAT 25 Sep 23:34:55 23:37:42 21° 67° (ENE) 23:40:29 437.505
SO-50 25 Sep 23:40:13 23:43:25 18° 36° (NE) 23:46:34 436.795
AISAT 25 Sep 23:46:35 23:50:40 36° 69° (ENE) 23:54:46 437.250
AUBIESAT-1 25 Sep 23:47:31 23:51:11 33° 65° (ENE) 23:54:37 437.475
ISS 25 Sep 23:52:20 23:55:16 30° 343° (NNW) 23:58:13 145.825
JAS-2 25 Sep 23:54:36 00:00:12 21° 87° (E) 00:05:38 435.910
SPROUT 25 Sep 23:57:30 00:00:58 24° 67° (ENE) 00:04:25 437.525
UNISAT 6 26 Sep 00:01:36 00:05:57 69° 286° (WNW) 00:10:23 437.425
UKube-1 26 Sep 00:06:33 00:10:15 28° 67° (ENE) 00:13:59 .
QB50P1 26 Sep 00:09:24 00:12:28 19° 93° (E) 00:15:33 145.935-145.965
DUCHIFAT 1 26 Sep 00:10:08 00:12:56 17° 92° (E) 00:15:44 145.980
AO-85 26 Sep 00:12:11 00:16:05 22° 320° (NW) 00:19:47 145.980
ESTCUBE 1 26 Sep 00:20:44 00:25:10 54° 260° (W) 00:29:39 437.505/2401.250
M-CUBED/EXP-1 PRIME 26 Sep 00:22:12 00:26:26 81° 253° (WSW) 00:30:20 437.505
POPSAT HIP 1 26 Sep 00:22:19 00:25:53 26° 95° (E) 00:29:25 437.405
DX 1 26 Sep 00:29:54 00:34:13 64° 74° (ENE) 00:38:35 434.975-435.025
VELOX 1 26 Sep 00:29:59 00:34:27 84° 258° (WSW) 00:38:56 145.980
ANTELSAT 26 Sep 00:37:32 00:41:22 30° 292° (WNW) 00:45:15 437.575/2403.000
NANOSAT C BR1 26 Sep 00:40:02 00:43:58 39° 98° (E) 00:47:54 145.865
CUBEBUG 1 26 Sep 00:40:35 00:44:53 51° 260° (W) 00:49:12 437.445
RS-15 26 Sep 00:49:07 00:59:24 31° 344° (NNW) 01:09:58 29.354- 29.394
TIGRISAT 26 Sep 00:59:14 01:02:26 20° 295° (WNW) 01:05:42 435.000
QB50P2 26 Sep 01:01:02 01:05:16 77° 103° (ESE) 01:09:29 145.880/145.840
POLYITAN 1 26 Sep 01:03:16 01:07:29 77° 102° (ESE) 01:11:43 437.675
Cosmos 2491 26 Sep 01:05:57 01:11:52 19° 58° (ENE) 01:17:45 435.465 / 435.565
50 SAT 26 Sep 01:07:55 01:11:03 27° 264° (W) 01:14:14 437.505
SO-50 26 Sep 01:19:53 01:24:30 82° 237° (WSW) 01:28:58 436.795
AUBIESAT-1 26 Sep 01:22:27 01:25:39 22° 259° (W) 01:28:43 437.475
AISAT 26 Sep 01:23:40 01:27:13 23° 266° (W) 01:30:47 437.250
TISAT 1 26 Sep 01:25:36 01:29:34 43° 71° (ENE) 01:33:33 437.305
ISS 26 Sep 01:29:50 01:32:26 21° 3° (N) 01:35:05 145.825
SPROUT 26 Sep 01:32:55 01:36:45 32° 263° (W) 01:40:37 437.525
JAS-2 26 Sep 01:38:08 01:46:04 87° 286° (WNW) 01:53:44 435.910
Oscar 19 26 Sep 01:38:55 01:41:50 15° 89° (E) 01:44:43 437.125/150
UKube-1 26 Sep 01:42:30 01:46:14 28° 264° (W) 01:50:01 .
QB50P1 26 Sep 01:44:29 01:48:24 38° 290° (WNW) 01:52:17 145.935-145.965
DUCHIFAT 1 26 Sep 01:44:52 01:48:50 43° 289° (WNW) 01:52:47 145.980
BUGSAT 1 26 Sep 01:56:36 02:00:36 76° 286° (WNW) 02:04:37 437.445
POPSAT HIP 1 26 Sep 01:58:00 02:01:38 29° 292° (WNW) 02:05:15 437.405
DX 1 26 Sep 02:08:49 02:10:50 13° 270° (W) 02:12:51 434.975-435.025
YUBILEINY 26 Sep 02:11:42 02:16:25 16° 74° (ENE) 02:21:08 435.215
ITUPSAT 1 26 Sep 02:13:37 02:17:46 31° 66° (ENE) 02:21:56 437.325
BEESAT 3 26 Sep 02:14:28 02:18:17 56° 120° (ESE) 02:22:09 437.485
NANOSAT C BR1 26 Sep 02:16:23 02:19:27 20° 295° (WNW) 02:22:32 145.865
Gurwin Techsat 1B 26 Sep 02:18:08 02:21:37 17° 90° (E) 02:25:04 435.225
SWISSCUBE 26 Sep 02:27:30 02:32:02 46° 70° (ENE) 02:36:36 437.505
QB50P2 26 Sep 02:39:04 02:40:27 11° 300° (WNW) 02:41:52 145.880/145.840
BEESAT 26 Sep 02:40:37 02:45:15 56° 72° (ENE) 02:49:56 436.000
POLYITAN 1 26 Sep 02:41:18 02:42:41 11° 300° (WNW) 02:44:05 437.675
MOZHAYETS 4 26 Sep 02:52:08 02:54:20 13° 60° (ENE) 02:56:33
Cosmos 2491 26 Sep 03:01:21 03:10:16 82° 82° (E) 03:19:06 435.465 / 435.565
TISAT 1 26 Sep 03:02:38 03:05:25 17° 268° (W) 03:08:13 437.305
BEESAT 2 26 Sep 03:05:13 03:09:09 84° 304° (WNW) 03:13:10 435.950
RS-15 26 Sep 03:06:17 03:16:55 32° 19° (NNE) 03:27:34 29.354- 29.394
ISS 26 Sep 03:06:22 03:09:31 42° 23° (NNE) 03:12:41 145.825
AO-7 26 Sep 03:15:15 03:17:46 11° 85° (E) 03:20:16 29.400- 29.500
Oscar 19 26 Sep 03:16:31 03:21:41 71° 287° (WNW) 03:26:47 437.125/150
JAS-2 26 Sep 03:24:24 03:30:01 22° 305° (NW) 03:35:35 435.910
KKS-1 26 Sep 03:32:05 03:35:29 22° 64° (ENE) 03:38:54 437.445
ITUPSAT 1 26 Sep 03:51:19 03:55:32 31° 264° (W) 03:59:48 437.325
BEESAT 3 26 Sep 03:53:28 03:56:16 18° 319° (NW) 03:59:06 437.485
Gurwin Techsat 1B 26 Sep 03:56:45 04:02:02 65° 287° (WNW) 04:07:17 435.225
YUBILEINY 26 Sep 04:02:55 04:11:42 78° 95° (E) 04:20:27 435.215
ITAMSAT 1 26 Sep 04:04:50 04:09:51 45° 99° (E) 04:14:50 435.822/435.867
SWISSCUBE 26 Sep 04:06:32 04:10:03 20° 267° (W) 04:13:36 437.505
CUBESAT XI-V 26 Sep 04:06:49 04:08:14 11° 58° (ENE) 04:09:40 437.345
STARS 26 Sep 04:11:25 04:15:05 27° 66° (ENE) 04:18:45 437.465
BEESAT 26 Sep 04:20:19 04:23:23 17° 269° (W) 04:26:29 436.000
Cosmos 2504 26 Sep 04:23:35 04:30:22 40° 88° (E) 04:36:57 435.465 / 435.565
MOZHAYETS 4 26 Sep 04:26:20 04:30:53 75° 257° (WSW) 04:35:30
ISS 26 Sep 04:42:59 04:45:57 31° 221° (SW) 04:48:54 145.825
BEESAT 2 26 Sep 04:45:38 04:47:37 13° 324° (NW) 04:49:36 435.950
Oscar 19 26 Sep 04:58:56 05:00:03 11° 305° (NW) 05:01:10 437.125/150
Cosmos 2491 26 Sep 04:59:43 05:06:00 22° 282° (WNW) 05:12:18 435.465 / 435.565
AO-7 26 Sep 05:03:53 05:12:08 64° 104° (ESE) 05:20:21 29.400- 29.500
KKS-1 26 Sep 05:07:37 05:11:48 40° 261° (W) 05:16:01 437.445
AIST 2 26 Sep 05:09:05 05:13:09 72° 123° (ESE) 05:17:18 435.215
RS-15 26 Sep 05:19:57 05:32:20 67° 49° (NE) 05:44:28 29.354- 29.394
CUSAT 1 26 Sep 05:20:50 05:26:14 19° 57° (ENE) 05:31:14 437.405
AO-85 26 Sep 05:21:33 05:23:58 14° 34° (NE) 05:26:17 145.980
AIST 1 26 Sep 05:32:51 05:36:29 26° 89° (E) 05:40:07
CUBESAT XI-V 26 Sep 05:40:09 05:44:50 86° 79° (ENE) 05:49:36 437.345
Gurwin Techsat 1B 26 Sep 05:40:30 05:40:57 10° 306° (NW) 05:41:24 435.225
ITAMSAT 1 26 Sep 05:44:49 05:49:04 26° 297° (WNW) 05:53:18 435.822/435.867
PCSat 26 Sep 05:45:29 05:50:52 74° 119° (ESE) 05:56:18 145.827
STARS 26 Sep 05:47:26 05:51:20 31° 263° (W) 05:55:15 437.465
YUBILEINY 26 Sep 06:02:35 06:09:29 25° 297° (WNW) 06:16:25 435.215
Cosmos 2504 26 Sep 06:16:54 06:23:43 39° 287° (WNW) 06:30:23 435.465 / 435.565
HORYU 2 26 Sep 06:17:09 06:21:26 45° 100° (E) 06:25:42 437.375
DANDE 26 Sep 06:29:45 06:36:45 29° 64° (ENE) 06:43:39 436.750
LilacSat-2 26 Sep 06:37:40 06:39:42 14° 91° (E) 06:41:43 437.200
AIST 2 26 Sep 06:49:21 06:52:07 17° 322° (NW) 06:54:54 435.215
AO-7 26 Sep 06:57:19 07:04:25 33° 304° (NW) 07:11:32 29.400- 29.500
AO-85 26 Sep 07:00:54 07:05:07 88° 55° (NE) 07:09:03 145.980
CUSAT 1 26 Sep 07:01:38 07:09:38 82° 79° (E) 07:16:27 437.405
AIST 1 26 Sep 07:10:08 07:13:59 29° 286° (WNW) 07:17:49
BRITE-PL 26 Sep 07:10:25 07:15:24 88° 283° (WNW) 07:19:58 437.365/2234.400
GOMX 1 26 Sep 07:10:28 07:14:40 38° 96° (E) 07:18:38 467.674
O/OREOS (USA 219) 26 Sep 07:13:25 07:15:29 13° 98° (E) 07:17:34 437.305
NOAA 15 26 Sep 07:19:00 07:24:11 50° 100° (E) 07:29:18 137.62
CUBESAT XI-V 26 Sep 07:22:01 07:22:52 10° 273° (W) 07:23:41 437.345
Cubesat XI-IV 26 Sep 07:27:46 07:32:58 49° 99° (E) 07:38:10 437.490
CUTE-I 26 Sep 07:28:35 07:33:48 51° 100° (E) 07:39:00 437.470
PCSat 26 Sep 07:30:40 07:34:50 22° 318° (NW) 07:39:03 145.827
STRAND 1 26 Sep 07:30:49 07:35:49 62° 72° (ENE) 07:40:53 437.568
RS-15 26 Sep 07:33:08 07:44:16 42° 253° (WSW) 07:55:10 29.354- 29.394
DOVE 4 26 Sep 07:42:09 07:46:01 33° 96° (E) 07:49:46 437.250
NOAA 18 26 Sep 07:52:35 07:58:02 64° 102° (ESE) 08:03:27 137.9125
HORYU 2 26 Sep 07:54:28 07:57:40 20° 296° (WNW) 08:00:53 437.375
PRISM 26 Sep 08:01:33 08:03:10 12° 60° (ENE) 08:04:48 437.425
LilacSat-2 26 Sep 08:10:34 08:14:15 45° 287° (WNW) 08:17:54 437.200
DANDE 26 Sep 08:11:57 08:20:17 75° 264° (W) 08:28:17 436.750
HO-68 26 Sep 08:13:15 08:18:46 23° 92° (E) 08:24:16 435.675
CUTE 1.7 + AOD 2 26 Sep 08:23:10 08:26:13 19° 92° (E) 08:29:15 437.475
CANX-2 26 Sep 08:23:46 08:27:07 22° 93° (E) 08:30:27 2200.000
GONETS M04 26 Sep 08:26:49 08:33:59 29° 81° (E) 08:41:12
SEEDS 26 Sep 08:28:47 08:31:15 15° 90° (E) 08:33:42 437.485
CUSAT 1 26 Sep 08:45:06 08:50:33 21° 280° (W) 08:55:31 437.405
GOMX 1 26 Sep 08:49:06 08:52:31 21° 296° (WNW) 08:55:47 467.674
O/OREOS (USA 219) 26 Sep 08:49:44 08:54:17 68° 296° (WNW) 08:58:52 437.305
BRITE-PL 26 Sep 08:51:15 08:52:58 12° 304° (NW) 08:54:40 437.365/2234.400
CUBEBUG 2 26 Sep 08:53:19 08:55:45 15° 91° (E) 08:58:12 437.445
AAUSAT CUBESAT 2 26 Sep 08:56:57 08:59:35 16° 91° (E) 09:02:13 437.432
NOAA 15 26 Sep 08:59:27 09:03:38 24° 298° (WNW) 09:07:47 137.62
CINEMA 3 26 Sep 09:08:08 09:12:19 77° 102° (ESE) 09:16:32 145.822/145.860
Cubesat XI-IV 26 Sep 09:08:29 09:12:44 25° 297° (WNW) 09:17:00 437.490
CUTE-I 26 Sep 09:09:19 09:13:32 24° 297° (WNW) 09:17:44 437.470
STRAND 1 26 Sep 09:12:08 09:15:26 17° 269° (W) 09:18:45 437.568
UWE-3 26 Sep 09:15:15 09:18:05 17° 92° (E) 09:20:58 435.000/436.395/437.385
DOVE 4 26 Sep 09:20:17 09:23:33 22° 295° (WNW) 09:26:45 437.250
UNISAT 6 26 Sep 09:27:48 09:29:49 13° 61° (ENE) 09:31:51 437.425
Cosmos 2499 26 Sep 09:32:28 09:39:27 58° 92° (E) 09:46:19 435.465 / 435.565
PRISM 26 Sep 09:33:44 09:37:53 73° 258° (WSW) 09:42:05 437.425
NOAA 18 26 Sep 09:34:18 09:38:12 20° 300° (WNW) 09:42:06 137.9125
COMPASS 1 26 Sep 09:38:07 09:42:18 57° 100° (E) 09:46:27 437.405
BEESAT 2 26 Sep 09:45:10 09:47:24 14° 37° (NE) 09:49:36 435.950
ZACube-1 26 Sep 09:48:28 09:52:01 24° 95° (E) 09:55:36 437.345
Oscar 11 26 Sep 09:50:15 09:53:51 25° 94° (E) 09:57:26 145.826/435.025
DANDE 26 Sep 09:56:56 10:01:44 17° 282° (WNW) 10:06:28 436.750
CUTE 1.7 + AOD 2 26 Sep 09:58:10 10:02:14 42° 289° (WNW) 10:06:17 437.475
CANX-2 26 Sep 09:59:07 10:03:04 36° 290° (WNW) 10:07:00 2200.000
HO-68 26 Sep 09:59:58 10:07:05 70° 290° (WNW) 10:14:10 435.675
ANTELSAT 26 Sep 10:01:23 10:05:01 28° 68° (ENE) 10:08:40 437.575/2403.000
SEEDS 26 Sep 10:03:06 10:07:15 52° 287° (WNW) 10:11:23 437.485
JAS-2 26 Sep 10:12:22 10:14:14 11° 45° (NE) 10:16:11 435.910
GONETS M04 26 Sep 10:21:21 10:30:07 66° 282° (WNW) 10:38:58
TIGRISAT 26 Sep 10:21:59 10:26:01 43° 71° (ENE) 10:30:03 435.000
HUMSAT D 26 Sep 10:26:50 10:28:42 13° 90° (E) 10:30:35 437.325/437.525
CUBEBUG 2 26 Sep 10:28:32 10:32:41 53° 287° (WNW) 10:36:55 437.445
BEESAT 3 26 Sep 10:30:08 10:34:02 53° 52° (NE) 10:37:56 437.485
AAUSAT CUBESAT 2 26 Sep 10:31:17 10:35:19 46° 288° (WNW) 10:39:20 437.432
DELFI C3 26 Sep 10:32:33 10:36:02 27° 95° (E) 10:39:28 145.870
O/OREOS (USA 219) 26 Sep 10:34:00 10:34:37 10° 316° (NW) 10:35:14 437.305
FUNcube-1 26 Sep 10:43:06 10:47:25 88° 104° (ESE) 10:51:49 145.935
CINEMA 3 26 Sep 10:47:47 10:48:52 11° 300° (WNW) 10:49:58 145.822/145.860
UWE-3 26 Sep 10:50:40 10:54:46 46° 288° (WNW) 10:58:57 435.000/436.395/437.385
UNISAT 6 26 Sep 11:01:47 11:06:02 66° 259° (WSW) 11:10:17 437.425
QB50P1 26 Sep 11:03:34 11:06:30 19° 64° (ENE) 11:09:26 145.935-145.965
DUCHIFAT 1 26 Sep 11:03:50 11:06:28 17° 64° (ENE) 11:09:08 145.980
COMPASS 1 26 Sep 11:15:02 11:17:23 15° 297° (WNW) 11:19:44 437.405
POPSAT HIP 1 26 Sep 11:16:20 11:19:45 24° 67° (ENE) 11:23:10 437.405
BEESAT 2 26 Sep 11:21:45 11:25:48 89° 250° (WSW) 11:29:48 435.950
ZACube-1 26 Sep 11:24:30 11:28:19 32° 291° (WNW) 11:32:13 437.345
Oscar 11 26 Sep 11:26:07 11:30:01 32° 291° (WNW) 11:33:53 145.826/435.025
Cosmos 2499 26 Sep 11:27:09 11:33:00 27° 293° (WNW) 11:38:49 435.465 / 435.565
NANOSAT C BR1 26 Sep 11:33:28 11:37:17 35° 70° (ENE) 11:41:06 145.865
ANTELSAT 26 Sep 11:38:02 11:41:42 27° 265° (W) 11:45:21 437.575/2403.000
HO-68 26 Sep 11:49:38 11:53:34 16° 311° (NW) 11:57:30 435.675
JAS-2 26 Sep 11:51:13 11:57:26 51° 67° (ENE) 12:04:25 435.910
AIST 2 26 Sep 11:51:56 11:53:58 13° 35° (NE) 11:55:59 435.215
QB50P2 26 Sep 11:54:44 11:58:54 68° 74° (ENE) 12:03:06 145.880/145.840
POLYITAN 1 26 Sep 11:56:58 12:01:09 68° 74° (ENE) 12:05:19 437.675
TIGRISAT 26 Sep 12:00:02 12:02:56 18° 268° (W) 12:05:49 435.000
HUMSAT D 26 Sep 12:00:31 12:04:42 62° 286° (WNW) 12:08:56 437.325/437.525
DELFI C3 26 Sep 12:07:26 12:10:47 25° 292° (WNW) 12:14:06 145.870
BEESAT 3 26 Sep 12:08:55 12:11:17 15° 249° (WSW) 12:13:39 437.485
ESTCUBE 1 26 Sep 12:11:57 12:15:52 28° 95° (E) 12:19:44 437.505/2401.250
VELOX 1 26 Sep 12:19:45 12:22:31 16° 91° (E) 12:25:17 145.980
FUNcube-1 26 Sep 12:22:13 12:23:01 10° 300° (WNW) 12:23:50 145.935
GONETS M04 26 Sep 12:24:23 12:28:58 15° 306° (NW) 12:33:34
CUBEBUG 1 26 Sep 12:27:58 12:31:36 25° 95° (E) 12:35:11 437.445
50 SAT 26 Sep 12:34:11 12:36:56 20° 94° (E) 12:39:40 437.505
DUCHIFAT 1 26 Sep 12:37:45 12:41:48 48° 260° (W) 12:45:52 145.980
QB50P1 26 Sep 12:37:59 12:41:58 42° 261° (W) 12:46:00 145.935-145.965
BUGSAT 1 26 Sep 12:47:15 12:51:23 88° 88° (E) 12:55:29 437.445
PCSat 26 Sep 12:49:32 12:53:05 17° 37° (NE) 12:56:36 145.827
POPSAT HIP 1 26 Sep 12:51:40 12:55:24 31° 263° (W) 12:59:10 437.405
Oscar 19 26 Sep 12:56:36 13:00:55 27° 64° (ENE) 13:05:14 437.125/150
AUBIESAT-1 26 Sep 12:59:41 13:01:30 14° 98° (E) 13:03:20 437.475
PHONESAT 2.4 26 Sep 13:04:36 13:07:10 27° 165° (SSE) 13:09:45 2401.200-2431.200
NANOSAT C BR1 26 Sep 13:09:53 13:13:06 21° 266° (W) 13:16:20 145.865
AISAT 26 Sep 13:11:06 13:15:28 59° 101° (E) 13:19:47 437.250
SPROUT 26 Sep 13:16:50 13:20:47 36° 97° (E) 13:24:42 437.525
UKube-1 26 Sep 13:27:23 13:31:29 40° 99° (E) 13:35:31 .
AIST 2 26 Sep 13:28:59 13:33:11 74° 53° (NE) 13:37:22 435.215
QB50P2 26 Sep 13:33:54 13:35:10 11° 271° (W) 13:36:25 145.880/145.840
M-CUBED/EXP-1 PRIME 26 Sep 13:34:25 13:37:39 49° 105° (ESE) 13:40:49 437.505
POLYITAN 1 26 Sep 13:36:12 13:37:24 11° 271° (W) 13:38:36 437.675
JAS-2 26 Sep 13:37:07 13:42:45 32° 269° (W) 13:49:03 435.910
Gurwin Techsat 1B 26 Sep 13:40:15 13:44:56 33° 66° (ENE) 13:49:37 435.225
ESTCUBE 1 26 Sep 13:48:38 13:52:39 31° 292° (WNW) 13:56:38 437.505/2401.250
ITAMSAT 1 26 Sep 13:48:49 13:50:45 12° 56° (NE) 13:52:42 435.822/435.867
DX 1 26 Sep 13:52:33 13:56:55 84° 286° (WNW) 14:01:15 434.975-435.025
VELOX 1 26 Sep 13:55:00 13:59:17 50° 289° (WNW) 14:03:32 145.980
CUBEBUG 1 26 Sep 14:04:03 14:07:54 31° 292° (WNW) 14:11:42 437.445
50 SAT 26 Sep 14:07:15 14:10:27 29° 291° (WNW) 14:13:38 437.505
Cosmos 2491 26 Sep 14:11:23 14:16:59 19° 76° (ENE) 14:22:36 435.465 / 435.565
YUBILEINY 26 Sep 14:11:30 14:19:39 42° 71° (ENE) 14:27:44 435.215
Cosmos 2504 26 Sep 14:14:10 14:18:18 15° 60° (ENE) 14:22:30 435.465 / 435.565
AO-7 26 Sep 14:14:27 14:20:44 25° 51° (NE) 14:27:01 29.400- 29.500
SWISSCUBE 26 Sep 14:29:23 14:29:49 10° 88° (E) 14:30:14 437.505
PCSat 26 Sep 14:31:54 14:37:22 80° 58° (ENE) 14:42:47 145.827
AUBIESAT-1 26 Sep 14:33:08 14:36:09 32° 295° (WNW) 14:39:08 437.475
Oscar 19 26 Sep 14:35:06 14:40:01 42° 262° (W) 14:44:58 437.125/150
PHONESAT 2.4 26 Sep 14:40:11 14:43:00 40° 182° (S) 14:45:49 2401.200-2431.200
BEESAT 26 Sep 14:41:04 14:43:07 13° 89° (E) 14:45:10 436.000
TISAT 1 26 Sep 14:43:09 14:47:18 64° 101° (E) 14:51:26 437.305
AISAT 26 Sep 14:48:53 14:51:28 15° 298° (WNW) 14:54:02 437.250
SPROUT 26 Sep 14:53:14 14:56:31 22° 294° (WNW) 14:59:47 437.525
UKube-1 26 Sep 15:04:02 15:07:15 21° 296° (WNW) 15:10:28 .
AIST 2 26 Sep 15:09:25 15:11:05 12° 251° (WSW) 15:12:44 435.215
M-CUBED/EXP-1 PRIME 26 Sep 15:10:59 15:11:47 11° 303° (WNW) 15:12:36 437.505
Gurwin Techsat 1B 26 Sep 15:19:58 15:24:48 35° 263° (W) 15:29:41 435.225
ITAMSAT 1 26 Sep 15:24:12 15:29:22 80° 75° (ENE) 15:34:34 435.822/435.867
SO-50 26 Sep 15:35:56 15:39:43 23° 113° (ESE) 15:43:31 436.795
ITUPSAT 1 26 Sep 15:49:27 15:54:13 58° 101° (E) 15:58:58 437.325
SWISSCUBE 26 Sep 16:03:26 16:08:17 90° 117° (ESE) 16:13:05 437.505
Cosmos 2491 26 Sep 16:03:41 16:12:29 88° 101° (ESE) 16:21:24 435.465 / 435.565
AO-7 26 Sep 16:04:12 16:12:33 87° 253° (WSW) 16:20:55 29.400- 29.500
Cosmos 2504 26 Sep 16:05:29 16:12:54 79° 81° (E) 16:20:46 435.465 / 435.565
YUBILEINY 26 Sep 16:08:23 16:16:31 46° 272° (W) 16:24:38 435.215
PHONESAT 2.4 26 Sep 16:16:21 16:18:47 23° 198° (SSW) 16:21:13 2401.200-2431.200
BEESAT 26 Sep 16:16:38 16:21:27 76° 285° (WNW) 16:26:13 436.000
PCSat 26 Sep 16:17:00 16:20:03 15° 256° (WSW) 16:23:07 145.827
MOZHAYETS 4 26 Sep 16:20:19 16:24:02 23° 93° (E) 16:27:43
TISAT 1 26 Sep 16:20:27 16:22:27 13° 299° (WNW) 16:24:25 437.305
BRITE-PL 26 Sep 16:44:59 16:48:54 20° 62° (ENE) 16:52:47 437.365/2234.400
KKS-1 26 Sep 16:56:52 17:00:53 32° 97° (E) 17:04:52 437.445
NOAA 15 26 Sep 17:03:58 17:06:44 14° 57° (ENE) 17:09:31 137.62
ITAMSAT 1 26 Sep 17:07:01 17:09:27 13° 271° (W) 17:11:54 435.822/435.867
Cubesat XI-IV 26 Sep 17:14:32 17:17:17 14° 57° (ENE) 17:20:03 437.490
AIST 1 26 Sep 17:14:50 17:19:10 79° 81° (E) 17:23:25
CUTE-I 26 Sep 17:15:07 17:17:56 15° 57° (ENE) 17:20:46 437.470
SO-50 26 Sep 17:15:14 17:19:56 50° 310° (NW) 17:24:35 436.795
HORYU 2 26 Sep 17:16:22 17:20:38 50° 71° (ENE) 17:24:55 437.375
O/OREOS (USA 219) 26 Sep 17:19:15 17:23:28 34° 58° (ENE) 17:27:39 437.305
ITUPSAT 1 26 Sep 17:28:22 17:31:36 18° 299° (WNW) 17:34:51 437.325
STARS 26 Sep 17:34:43 17:38:50 39° 99° (E) 17:42:55 437.465
CUBESAT XI-V 26 Sep 17:36:05 17:39:29 20° 92° (E) 17:42:52 437.345
NOAA 18 26 Sep 17:41:49 17:45:52 22° 60° (ENE) 17:49:55 137.9125
SWISSCUBE 26 Sep 17:43:24 17:45:20 12° 302° (WNW) 17:47:17 437.505
MOZHAYETS 4 26 Sep 17:56:59 18:01:18 39° 290° (WNW) 18:05:36
BEESAT 26 Sep 17:57:45 17:58:22 10° 304° (NW) 17:59:00 436.000
Cosmos 2504 26 Sep 18:00:26 18:05:27 20° 279° (W) 18:10:40 435.465 / 435.565
AO-7 26 Sep 18:00:59 18:06:24 19° 270° (W) 18:11:53 29.400- 29.500
Cosmos 2491 26 Sep 18:04:11 18:10:37 22° 299° (WNW) 18:17:07 435.465 / 435.565
GOMX 1 26 Sep 18:18:41 18:23:57 54° 72° (ENE) 18:28:59 467.674
BRITE-PL 26 Sep 18:21:07 18:26:48 72° 258° (WSW) 18:32:26 437.365/2234.400
CUSAT 1 26 Sep 18:26:06 18:29:00 13° 74° (ENE) 18:32:07 437.405
KKS-1 26 Sep 18:33:40 18:37:19 26° 294° (WNW) 18:40:58 437.445
GONETS M04 26 Sep 18:34:56 18:39:51 16° 55° (NE) 18:44:44
NOAA 15 26 Sep 18:40:27 18:45:45 89° 253° (WSW) 18:51:08 137.62
HO-68 26 Sep 18:44:23 18:49:40 23° 55° (NE) 18:54:56 435.675
DOVE 4 26 Sep 18:48:08 18:52:55 45° 72° (ENE) 18:57:28 437.250
Cubesat XI-IV 26 Sep 18:51:17 18:56:36 89° 255° (WSW) 19:01:58 437.490
CUTE-I 26 Sep 18:51:56 18:57:15 87° 256° (WSW) 19:02:36 437.470
LilacSat-2 26 Sep 18:53:28 18:57:14 78° 259° (W) 19:01:01 437.200
HORYU 2 26 Sep 18:54:42 18:57:29 16° 268° (W) 19:00:17 437.375
O/OREOS (USA 219) 26 Sep 18:58:51 19:02:45 27° 256° (WSW) 19:06:37 437.305
SO-50 26 Sep 18:59:34 19:01:31 12° 331° (NNW) 19:03:27 436.795
STARS 26 Sep 19:11:38 19:14:56 21° 295° (WNW) 19:18:14 437.465
CUBESAT XI-V 26 Sep 19:12:35 19:17:06 47° 289° (WNW) 19:21:35 437.345
CUTE 1.7 + AOD 2 26 Sep 19:17:45 19:20:27 17° 64° (ENE) 19:23:11 437.475
CANX-2 26 Sep 19:18:19 19:21:21 19° 65° (ENE) 19:24:24 2200.000
NOAA 18 26 Sep 19:20:41 19:26:05 60° 258° (WSW) 19:31:30 137.9125
Cosmos 2499 26 Sep 19:21:00 19:26:40 22° 65° (ENE) 19:32:35 435.465 / 435.565
SEEDS 26 Sep 19:22:39 19:24:43 13° 62° (ENE) 19:26:47 437.485
STRAND 1 26 Sep 19:40:42 19:44:16 19° 91° (E) 19:47:50 437.568
DANDE 26 Sep 19:41:21 19:44:52 18° 78° (ENE) 19:48:57 436.750
RS-15 26 Sep 19:46:25 19:56:13 34° 104° (ESE) 20:06:24 29.354- 29.394
AAUSAT CUBESAT 2 26 Sep 19:49:17 19:51:28 14° 62° (ENE) 19:53:39 437.432
CUBEBUG 2 26 Sep 19:53:27 19:55:52 15° 63° (ENE) 19:58:16 437.445
GOMX 1 26 Sep 19:58:11 20:02:15 21° 268° (W) 20:06:12 467.674
CUSAT 1 26 Sep 20:03:14 20:09:21 74° 96° (E) 20:16:56 437.405
BRITE-PL 26 Sep 20:05:35 20:06:06 10° 275° (W) 20:06:37 437.365/2234.400
CINEMA 3 26 Sep 20:10:50 20:15:21 83° 74° (ENE) 20:19:41 145.822/145.860
UWE-3 26 Sep 20:14:18 20:16:56 17° 64° (ENE) 20:19:34 435.000/436.395/437.385
NOAA 15 26 Sep 20:24:24 20:26:16 12° 272° (W) 20:28:08 137.62
DOVE 4 26 Sep 20:26:53 20:30:46 22° 267° (W) 20:34:31 437.250
HO-68 26 Sep 20:29:24 20:36:36 82° 254° (WSW) 20:43:49 435.675
GONETS M04 26 Sep 20:29:46 20:38:36 70° 79° (ENE) 20:47:19
COMPASS 1 26 Sep 20:29:59 20:33:58 45° 72° (ENE) 20:38:00 437.405
Cubesat XI-IV 26 Sep 20:35:37 20:37:25 12° 273° (W) 20:39:14 437.490
CUTE-I 26 Sep 20:36:27 20:38:03 11° 273° (W) 20:39:40 437.470
ZACube-1 26 Sep 20:46:07 20:49:21 22° 66° (ENE) 20:52:36 437.345
Oscar 11 26 Sep 20:46:35 20:50:00 23° 66° (ENE) 20:53:27 145.826/435.025
CUTE 1.7 + AOD 2 26 Sep 20:51:49 20:55:55 49° 261° (W) 21:00:04 437.475
CANX-2 26 Sep 20:52:54 20:56:55 41° 262° (W) 21:00:58 2200.000
SEEDS 26 Sep 20:55:44 20:59:53 64° 259° (W) 21:04:07 437.485
Cosmos 2499 26 Sep 21:13:02 21:20:31 77° 265° (W) 21:28:35 435.465 / 435.565
PRISM 26 Sep 21:15:17 21:17:24 14° 91° (E) 21:19:29 437.425
AO-85 26 Sep 21:16:27 21:20:30 23° 113° (ESE) 21:24:23 145.980
STRAND 1 26 Sep 21:18:46 21:23:50 58° 288° (WNW) 21:28:52 437.568
DELFI C3 26 Sep 21:20:06 21:23:04 20° 66° (ENE) 21:26:04 145.870
HUMSAT D 26 Sep 21:20:45 21:21:54 11° 60° (ENE) 21:23:03 437.325/437.525
DANDE 26 Sep 21:21:27 21:26:30 68° 284° (WNW) 21:33:17 436.750
AAUSAT CUBESAT 2 26 Sep 21:22:21 21:26:27 59° 260° (W) 21:30:37 437.432
ISS 26 Sep 21:23:39 21:26:37 33° 140° (SE) 21:29:36 145.825
CUBEBUG 2 26 Sep 21:27:59 21:32:06 53° 260° (W) 21:36:11 437.445
FUNcube-1 26 Sep 21:39:55 21:44:02 80° 76° (ENE) 21:48:11 145.935
CUSAT 1 26 Sep 21:47:09 21:52:19 24° 300° (WNW) 21:58:15 437.405
UWE-3 26 Sep 21:49:02 21:53:03 46° 261° (W) 21:57:04 435.000/436.395/437.385
